Simultaneous Nadir Overpasses (SNOs) Predictions

Prediction of SNOs between GOES-16 and NOAA-20 Satellite Orbit:

Table of predicted SNOs for the next 14.0 days since TLE Epoch: 3/23/2024
Index Date Time (GOES-16) GOES-16 Lat,Lon NOAA-20 Lat,Lon Distance(km) Time Diff (sec)
1 03/23/2024 06:13:08 -0.03, -75.20 -0.69, -72.35 326.46 80
2 03/24/2024 18:32:29 0.03, -75.21 -0.37, -77.02 205.94 80
3 03/25/2024 18:14:44 0.03, -75.22 0.72, -72.08 357.53 80
4 03/27/2024 06:33:59 -0.03, -75.24 0.29, -76.74 171.10 80
5 03/28/2024 06:10:53 -0.03, -75.25 -0.79, -71.80 392.33 80
6 03/29/2024 18:30:14 0.03, -75.26 -0.27, -76.48 139.20 80
7 03/30/2024 18:12:29 0.03, -75.27 0.89, -71.55 424.61 80
8 04/01/2024 06:31:44 -0.02, -75.29 0.20, -76.19 103.83 80
9 04/02/2024 06:08:39 -0.02, -75.30 -0.95, -71.27 459.92 80
10 04/03/2024 18:27:58 0.01, -75.31 -0.11, -75.94 70.86 80
11 04/04/2024 18:10:13 0.01, -75.33 1.00, -71.00 493.53 80
